Regional Weather Roundup
Issued by NWS

Home | Current Version | Previous Version | Text Only | Print | Product List | Glossary On
Versions: 1 2 3 4 5 6 7 8 9 10 11 12 13 14 15 16 17 18 19 20 21 22 23 24 25 26 27 28 29 30 31 32 33 34 35 36 37 38 39 40 41 42 43 44 45 46 47 48 49 50
000
ASUS44 KBMX 010510
RWRAL

ALABAMA REGIONAL WEATHER ROUNDUP
NATIONAL WEATHER SERVICE BIRMINGHAM AL
1100 PM CST SAT FEB 28 2015

NOTE: "FAIR" INDICATES FEW OR NO CLOUDS BELOW 12,000 FEET
WITH NO SIGNIFICANT WEATHER AND/OR OBSTRUCTIONS TO VISIBILITY.

THE REMARK "TC" DENOTES TEMPERATURE IN DEGREES CELSIUS.

ALZ001>011-014-016>018-020-010600-
NORTH ALABAMA

CITY           SKY/WX    TMP DP  RH WIND       PRES   REMARKS
MUSCLE SHOALS  CLEAR     48  33  56 SE7       30.38S
HUNTSVILLE     CLOUDY    49  33  54 SE18G25   30.42F
DECATUR        CLOUDY    49  34  56 SE14      30.41F
HALEYVILLE       N/A     47  34  60 SE9       30.40F
GADSDEN        CLOUDY    50  32  50 SE7       30.46F
$$

ALZ012-013-022-023-030>036-040>044-010600-
WEST CENTRAL ALABAMA

CITY           SKY/WX    TMP DP  RH WIND       PRES   REMARKS
TUSCALOOSA     MOCLDY    57  46  66 SE12G21   30.42S
$$

ALZ015-024>027-033>036-040>044-010600-
CENTRAL ALABAMA

CITY           SKY/WX    TMP DP  RH WIND       PRES   REMARKS
BIRMINGHAM     CLOUDY    54  42  64 SE13G21   30.46R
MONTGOMERY     CLOUDY    51  43  74 E14       30.47F
SHELBY CO ARPT CLOUDY    53  43  68 SE7       30.45S
MAXWELL AFB    CLOUDY    51  44  78 E6        30.46F
GREENVILLE     CLOUDY    49  45  86 E9        30.43F
$$

ALZ019-021-028-029-037-038-045>048-010600-
EAST CENTRAL ALABAMA

CITY           SKY/WX    TMP DP  RH WIND       PRES   REMARKS
ANNISTON       MOCLDY    51  34  52 E8        30.48F
ALEXANDER CITY CLOUDY    52  42  70 E10       30.49S
AUBURN         CLOUDY    43  37  81 E12       30.51F
$$

ALZ051>064-010600-
SOUTHWEST ALABAMA

CITY           SKY/WX    TMP DP  RH WIND       PRES   REMARKS
MOBILE         CLOUDY    54  50  86 E13       30.39F
BROOKLEY FIELD CLOUDY    54  50  86 E13       30.40F
EVERGREEN      CLOUDY    51  47  86 E14       30.44F
$$

ALZ049-050-065>069-010600-
SOUTHEAST ALABAMA

CITY           SKY/WX    TMP DP  RH WIND       PRES   REMARKS
DOTHAN         LGT RAIN  45  44  97 E12       30.48F
OZARK          LGT RAIN  46  43  87 E10G18    30.45S
TROY           CLOUDY    47  44  90 E9        30.47F
EUFAULA        CLOUDY    46  43  89 NE5       30.48F
$$



USA.gov is the U.S. government's official web portal to all federal, state and local government web resources and services.